Previsão horária em Abakumovka

Hoje, 16 Janeiro, Sábado

Tempo Temperatura Precipitação Vento Pressão Humidade
00:00 -15°C° 0.6 mm 4 m/s 739 mmHg 94%
01:00 -15°C° 0.2 mm 4 m/s 739 mmHg 94%
02:00 -15°C° 0.2 mm 4 m/s 739 mmHg 94%
03:00 -15°C° 0 mm 4 m/s 739 mmHg 95%
04:00 -15°C° 0.1 mm 4 m/s 738 mmHg 94%
05:00 -15°C° 0.1 mm 4 m/s 738 mmHg 94%
06:00 -16°C° 0.1 mm 4 m/s 738 mmHg 94%
07:00 -16°C° 0 mm 4 m/s 738 mmHg 94%
08:00 -17°C° 0 mm 4 m/s 738 mmHg 95%
09:00 -17°C° 0 mm 4 m/s 738 mmHg 95%
10:00 -16°C° 0 mm 4 m/s 738 mmHg 94%
11:00 -15°C° 0 mm 4 m/s 738 mmHg 94%
12:00 -14°C° 0 mm 5 m/s 738 mmHg 93%
13:00 -14°C° 0.1 mm 5 m/s 738 mmHg 93%
14:00 -15°C° 0.1 mm 6 m/s 739 mmHg 92%
15:00 -14°C° 0 mm 5 m/s 738 mmHg 94%
16:00 -16°C° 0.1 mm 6 m/s 739 mmHg 93%
17:00 -16°C° 0.1 mm 6 m/s 739 mmHg 93%
18:00 -17°C° 0.1 mm 6 m/s 739 mmHg 93%
19:00 -18°C° 0.1 mm 6 m/s 740 mmHg 93%
20:00 -18°C° 0.1 mm 6 m/s 740 mmHg 92%
21:00 -20°C° 0.1 mm 6 m/s 740 mmHg 92%
22:00 -20°C° 0 mm 6 m/s 741 mmHg 92%
23:00 -20°C° 0 mm 6 m/s 741 mmHg 93%

Amanhã, 17 Janeiro, Domingo

Tempo Temperatura Precipitação Vento Pressão Humidade
00:00 -21°C° 0 mm 6 m/s 742 mmHg 93%
01:00 -20°C° 0 mm 5 m/s 742 mmHg 93%
02:00 -21°C° 0 mm 5 m/s 743 mmHg 94%
03:00 -22°C° 0 mm 4 m/s 743 mmHg 94%
04:00 -23°C° 0 mm 4 m/s 743 mmHg 96%
05:00 -24°C° 0 mm 4 m/s 743 mmHg 97%
06:00 -24°C° 0 mm 3 m/s 743 mmHg 98%
07:00 -24°C° 0 mm 3 m/s 744 mmHg 98%
08:00 -25°C° 0 mm 3 m/s 744 mmHg 98%
09:00 -25°C° 0 mm 3 m/s 744 mmHg 98%
10:00 -23°C° 0 mm 2 m/s 745 mmHg 97%
11:00 -21°C° 0 mm 2 m/s 745 mmHg 96%
12:00 -20°C° 0 mm 2 m/s 746 mmHg 95%
13:00 -20°C° 0 mm 2 m/s 746 mmHg 95%
14:00 -18°C° 0 mm 1 m/s 746 mmHg 95%
15:00 -19°C° 0 mm 1 m/s 746 mmHg 95%
16:00 -20°C° 0 mm 1 m/s 746 mmHg 96%
17:00 -21°C° 0 mm 1 m/s 746 mmHg 97%
18:00 -22°C° 0 mm 1 m/s 747 mmHg 98%
19:00 -22°C° 0 mm 1 m/s 747 mmHg 99%
20:00 -23°C° 0 mm 0 m/s 747 mmHg 99%
21:00 -23°C° 0 mm 0 m/s 747 mmHg 99%
22:00 -23°C° 0 mm 1 m/s 747 mmHg 99%
23:00 -23°C° 0 mm 1 m/s 748 mmHg 98%

Depois de amanhã, 18 Janeiro, Segunda-feira

Tempo Temperatura Precipitação Vento Pressão Humidade
00:00 -22°C° 0 mm 1 m/s 748 mmHg 97%
01:00 -23°C° 0 mm 1 m/s 748 mmHg 97%
02:00 -23°C° 0 mm 1 m/s 748 mmHg 97%
03:00 -24°C° 0 mm 1 m/s 748 mmHg 97%
04:00 -23°C° 0 mm 1 m/s 748 mmHg 96%
05:00 -23°C° 0 mm 1 m/s 748 mmHg 96%
06:00 -23°C° 0 mm 1 m/s 748 mmHg 95%
07:00 -23°C° 0 mm 1 m/s 748 mmHg 95%
08:00 -23°C° 0 mm 1 m/s 748 mmHg 95%
09:00 -23°C° 0 mm 1 m/s 749 mmHg 94%
10:00 -22°C° 0 mm 1 m/s 748 mmHg 94%
11:00 -21°C° 0 mm 1 m/s 748 mmHg 93%
12:00 -23°C° 0 mm 2 m/s 748 mmHg 92%
13:00 -21°C° 0 mm 2 m/s 748 mmHg 92%
14:00 -21°C° 0 mm 2 m/s 748 mmHg 92%
15:00 -20°C° 0 mm 2 m/s 748 mmHg 92%
16:00 -18°C° 0.2 mm 1 m/s 748 mmHg 94%
17:00 -18°C° 0.2 mm 1 m/s 748 mmHg 95%
18:00 -19°C° 0.2 mm 1 m/s 748 mmHg 97%
19:00 -19°C° 0.2 mm 1 m/s 748 mmHg 97%
20:00 -19°C° 0.2 mm 1 m/s 748 mmHg 97%
21:00 -19°C° 0.2 mm 1 m/s 748 mmHg 97%
22:00 -19°C° 0.1 mm 1 m/s 748 mmHg 97%
23:00 -19°C° 0.1 mm 1 m/s 748 mmHg 97%

19 Janeiro, Terça-feira

Tempo Temperatura Precipitação Vento Pressão Humidade
00:00 -19°C° 0.1 mm 1 m/s 748 mmHg 97%
01:00 -19°C° 0.1 mm 1 m/s 748 mmHg 98%
02:00 -19°C° 0.1 mm 1 m/s 748 mmHg 98%
03:00 -19°C° 0.1 mm 1 m/s 748 mmHg 98%
04:00 -20°C° 0 mm 1 m/s 748 mmHg 98%
05:00 -20°C° 0 mm 1 m/s 747 mmHg 98%
06:00 -24°C° 0 mm 2 m/s 747 mmHg 98%
07:00 -21°C° 0 mm 1 m/s 747 mmHg 98%
08:00 -20°C° 0 mm 1 m/s 748 mmHg 98%
09:00 -20°C° 0 mm 1 m/s 748 mmHg 98%
10:00 -19°C° 0 mm 1 m/s 748 mmHg 96%
11:00 -19°C° 0 mm 1 m/s 748 mmHg 95%
12:00 -20°C° 0 mm 2 m/s 748 mmHg 94%
13:00 -20°C° 0.1 mm 2 m/s 748 mmHg 94%
14:00 -20°C° 0.1 mm 2 m/s 747 mmHg 94%
15:00 -19°C° 0.1 mm 2 m/s 747 mmHg 94%
16:00 -20°C° 0 mm 2 m/s 747 mmHg 95%
17:00 -20°C° 0 mm 2 m/s 747 mmHg 96%
18:00 -20°C° 0 mm 2 m/s 747 mmHg 97%
19:00 -20°C° 0.1 mm 2 m/s 748 mmHg 97%
20:00 -20°C° 0.1 mm 2 m/s 748 mmHg 97%
21:00 -20°C° 0.1 mm 2 m/s 748 mmHg 97%
22:00 -20°C° 0 mm 2 m/s 748 mmHg 96%
23:00 -20°C° 0 mm 2 m/s 748 mmHg 96%

20 Janeiro, Quarta-feira

Tempo Temperatura Precipitação Vento Pressão Humidade
00:00 -21°C° 0 mm 2 m/s 748 mmHg 96%
01:00 -21°C° 0 mm 2 m/s 749 mmHg 96%
02:00 -21°C° 0 mm 2 m/s 749 mmHg 95%
03:00 -21°C° 0 mm 2 m/s 749 mmHg 95%
04:00 -21°C° 0 mm 2 m/s 749 mmHg 96%
05:00 -21°C° 0 mm 2 m/s 750 mmHg 96%
06:00 -21°C° 0 mm 2 m/s 750 mmHg 97%
07:00 -23°C° 0 mm 2 m/s 750 mmHg 97%
08:00 -23°C° 0 mm 2 m/s 751 mmHg 97%
09:00 -23°C° 0 mm 2 m/s 751 mmHg 98%
10:00 -21°C° 0 mm 2 m/s 751 mmHg 97%
11:00 -21°C° 0 mm 2 m/s 752 mmHg 96%
12:00 -20°C° 0 mm 2 m/s 752 mmHg 95%
13:00 -20°C° 0 mm 2 m/s 752 mmHg 95%
14:00 -20°C° 0 mm 2 m/s 752 mmHg 95%
15:00 -20°C° 0 mm 2 m/s 752 mmHg 95%
16:00 -21°C° 0 mm 2 m/s 753 mmHg 96%
17:00 -21°C° 0 mm 2 m/s 753 mmHg 97%
18:00 -23°C° 0 mm 2 m/s 753 mmHg 98%
19:00 -23°C° 0 mm 2 m/s 754 mmHg 98%
20:00 -24°C° 0 mm 2 m/s 754 mmHg 98%
21:00 -24°C° 0 mm 2 m/s 754 mmHg 98%
22:00 -24°C° 0 mm 2 m/s 754 mmHg 98%
23:00 -24°C° 0 mm 2 m/s 754 mmHg 98%

21 Janeiro, Quinta-feira

Tempo Temperatura Precipitação Vento Pressão Humidade
00:00 -24°C° 0 mm 2 m/s 755 mmHg 98%
01:00 -24°C° 0 mm 2 m/s 755 mmHg 98%
02:00 -24°C° 0 mm 2 m/s 755 mmHg 98%
03:00 -24°C° 0 mm 2 m/s 755 mmHg 98%
04:00 -24°C° 0 mm 2 m/s 755 mmHg 98%
05:00 -24°C° 0 mm 2 m/s 755 mmHg 98%
06:00 -24°C° 0 mm 2 m/s 755 mmHg 98%
07:00 -25°C° 0 mm 3 m/s 755 mmHg 98%
08:00 -24°C° 0 mm 3 m/s 755 mmHg 97%
09:00 -24°C° 0 mm 3 m/s 755 mmHg 97%
10:00 -23°C° 0 mm 4 m/s 755 mmHg 95%
11:00 -22°C° 0 mm 4 m/s 755 mmHg 92%
12:00 -20°C° 0 mm 5 m/s 755 mmHg 90%
13:00 -20°C° 0 mm 5 m/s 754 mmHg 90%
14:00 -19°C° 0 mm 5 m/s 754 mmHg 89%
15:00 -18°C° 0 mm 6 m/s 753 mmHg 89%
16:00 -18°C° 0 mm 6 m/s 753 mmHg 89%
17:00 -18°C° 0 mm 6 m/s 752 mmHg 89%
18:00 -17°C° 0 mm 6 m/s 752 mmHg 89%
19:00 -17°C° 0.1 mm 7 m/s 751 mmHg 90%
20:00 -15°C° 0.1 mm 7 m/s 751 mmHg 92%
21:00 -15°C° 0.1 mm 8 m/s 751 mmHg 93%
22:00 -13°C° 0.3 mm 8 m/s 750 mmHg 93%
23:00 -11°C° 0.3 mm 7 m/s 750 mmHg 93%
Mostrar mais

Necessitamos do seu Consentimento

A Meteoprog e os seus Fornecedores de Serviços podem armazenar e aceder a dados pessoais como cookies, identificadores do dispositivo ou outras tecnologias semelhantes existentes no seu dispositivo e processar estes dados para personalizar conteúdos e anúncios, assim como funcionalidades nas redes sociais e análise de tráfego.

  • Armazenar e/ou aceder a informações no seu dispositivo

    Os cookies, identificadores do dispositivo ou outras informações podem ser armazenados ou acedidos no seu dispositivo, para os fins acima indicados.

  • Anúncios e conteúdos personalizados, medição de anúncios e conteúdos, dados sobre o público-alvo e desenvolvimento de produtos

    Os anúncios e os conteúdos podem ser personalizados com base num perfil. Podem ser adicionados dados adicionais para uma maior personalização dos anúncios e dos conteúdos. A eficácia dos anúncios e dos conteúdos pode ser medida. Podem ser obtidas informações sobre o público que visualizou os anúncios e os conteúdos. Estes dados podem ser usados para desenvolver ou melhorar sistemas, softwares ou a experiência do utilizador.

Ao clicar em "Eu concordo”, permitirá o uso de cookies, identificadores do dispositivo e web beacons mencionados ou outras tecnologias semelhantes. As configurações do navegador do seu dispositivo podem ser alteradas.

Para certos fins, podem ser invocados interesses legítimos ao invés de consentimento. Pode ler mais informação sobre este assunto na nossa Política de Privacidade e Cookies.